Location: Bogis-Bossey
(46.3500°N, 6.1667°E)
Time: 17:15:24
(UTC+00:00)

Meteor 1-20 Rocket - Pass Details

Date: 17 August 2022
Orbit: 819 x 891 km, 81.2° (Epoch: 30 September)

Event Time Altitude Azimuth Distance (km) Brightness Sun altitude
Exits shadow 20:03:20 - 169° (SSE) 2,573 6.3 -13.3°
Reaches altitude 10° 20:03:39 10° 168° (SSE) 2,455 6.2 -13.3°
Maximum altitude 20:09:01 50° 94° (E) 1,076 4.4 -14.1°
Drops below altitude 10° 20:14:31 10° 20° (NNE) 2,520 6.9 -14.8°
Sets 20:17:02 0° 16° (NNE) 3,473 7.7 -15.1°
